Regional Weather Roundup
Issued by NWS Sioux Falls, SD

Home | Current Version | Previous Version | Text Only | Print | Product List | Glossary On
Versions: 1 2 3 4 5 6 7 8 9 10 11 12 13 14 15 16 17 18 19 20 21 22 23 24 25 26 27 28 29 30 31 32 33 34 35 36 37 38 39 40 41 42 43 44 45 46 47 48 49 50
084
ASUS43 KFSD 230902
RWRFSD

WEATHER ROUNDUP FOR SE SOUTH DAKOTA/SW MINNESOTA/NW IOWA
NATIONAL WEATHER SERVICE SIOUX FALLS SD
400 AM CDT SUN JUL 23 2017

NOTE: "FAIR" INDICATES FEW OR NO CLOUDS BELOW 12,000 FEET WITH NO
SIGNIFICANT WEATHER AND OR OBSTRUCTIONS TO VISIBILITY.


SDZ038>040-050-052>070-231000-
SOUTHEAST SOUTH DAKOTA

CITY           SKY/WX    TMP DP  RH WIND       PRES   REMARKS
BROOKINGS      CLEAR     64  59  83 NW3       29.96S
CHAMBERLAIN    CLEAR     70  56  61 N3        29.99S
HURON          CLEAR     63  60  90 N9        29.97S
MADISON        FAIR      61  61 100 N8        29.97S
MITCHELL       CLEAR     65  58  78 N7        29.96S
SIOUX FALLS    CLEAR     67  60  78 N7        29.94R
WINNER         FAIR      64  51  62 W5        30.02R
YANKTON        CLEAR     73  65  75 SW7       29.96R
$$

MNZ071-072-080-081-089-090-097-098-231000-
SOUTHWEST MINNESOTA

CITY           SKY/WX    TMP DP  RH WIND       PRES   REMARKS
FAIRMONT       CLEAR     68  64  87 W9        29.87S
JACKSON        CLEAR     66  61  82 W10       29.90R
MARSHALL       CLEAR     64  61  90 NW9       29.93R
MONTEVIDEO     CLEAR     63  55  77 N5        29.91R
PIPESTONE      CLEAR     66  59  77 N5        29.95S
REDWOOD FALLS  PTCLDY    68  60  75 NW8       29.88R
WINDOM         CLEAR     66  63  88 NW10      29.90R
WORTHINGTON    CLEAR     65  60  84 NW12      29.93R
$$

IAZ001>003-012>014-020>022-031-032-NEZ013-014-SDZ071-231000-
NORTHWEST IOWA

CITY           SKY/WX    TMP DP  RH WIND       PRES   REMARKS
CHEROKEE       CLEAR     66  66 100 S5        29.92R FOG
DENISON        FOG       72  72 100 SW3       29.95R VSB<1/4
ESTHERVILLE    CLEAR     64  63  96 W8        29.88R
ORANGE CITY    CLEAR     66  66 100 NW3       29.93R
SHELDON        PTCLDY    68  64  88 NW7       29.91S
SIOUX CITY     CLEAR     67  67 100 CALM      29.93S
SPENCER        CLEAR     67  64  90 W7        29.91R
STORM LAKE     CLEAR     68  68 100 W7        29.92S
$$

ABBREVIATIONS USED IN REMARKS
   TC - TEMPERATURE IN CELSIUS
  WCI - WIND CHILL INDEX
   HX - HEAT INDEX
  VSB - VISIBILITY





USA.gov is the U.S. government's official web portal to all federal, state and local government web resources and services.